Starlink 33916

operational
NORAD ID: 63792 Int'l Des: 2025-091 Owner: SPXS Country: US Constellation: starlink
LEOCIRCULAR

Starlink 33916について

説明を読み込み中...

リアルタイム位置

3D地球を読み込み中...

次回通過

高度履歴

Altitude vs Time

uPlot chart will show altitude changes over time

軌道要素

1 63792U 25091T 26034.98033283 .00025318 00000-0 92542-3 0 9999
2 63792 42.9999 243.1735 0002915 265.0004 95.0514 15.27612574 43742
Epoch: Feb 3, 2026 • Age: 17 hours

現在のステータス

高度 483.3 km
速度 7.63 km/s
衛星直下点 -6.34°S, 50.58°E
打ち上げ日 May 2, 2025
運用期間 0.7 years
タイプ internet

技術仕様

分類 Payload
質量 575.00 kg
乾燥質量 530.00 kg
総質量 575.00 kg
長さ 0.30 m
直径 4.10 m
スパン 29.00 m
形状 Box + pan
製造者 SPXS
バスタイプ Starlink V2MO
フェーズステータス In Orbit
所有者/国 SPXS/US

大規模コンステレーション

Loading constellations...